sat.trackr.live / text

‹ back to catalog

STARLINK-37268

NORAD 68747 · 2026-082V

PAYLOAD ACTIVE UNKNOWN

§ Identity

Operator
Country
US
Launch date
2026-04-15
Launch site
AFWTR
Launch vehicle
Mass (kg)
RCS (m²)

Purposes: comms

External: N2YO · Heavens-Above · Gunter

§ Orbital elements

Epoch: 2026-05-25T04:00:03.998880Z

Period
92.53 min
Inclination
97.2851°
Eccentricity
0.0001886
Mean motion
15.56273006 rev/d
Perigee alt
397.2 km
Apogee alt
399.7 km
Semi-major
6,776.6 km
B*
-3.3375e-2
RAAN
8.8288°
Arg perigee
104.1751°
Mean anomaly
111.3841°
Rev number
600

§ Raw data

STARLINK-372681 68747U 26082V   26145.16671295 -.02087020  00000+0 -33375-1 0  99972 68747  97.2851   8.8288 0001886 104.1751 111.3841 15.56273006  6002

JSON: /api/v1/satellites/68747 · /tle

For live sub-satellite position, see the globe view (requires WebGL).

§ Visibility from observer

Set your observer location to see the next 7 days of passes ≥ 10°. The values pass through the URL so the page stays shareable.

No JS? Fill the form by hand. The geolocation button needs JavaScript.